Temp
64 64 65 67 67 68 67 64 67 70 70 69 69 68 68 68 67 65 65 74 76 77 79 80 79 79 78 77 76 76 75 75 74 74 73 73 73 73 73 73 73 73 73
63 63 64 66 66 69 68 66 69 69 69 68 67 69 69 69 68 69 69 69 74 75 76 78 79 79 79 78 77 76 75 74 74 73 73 72 72 72 72 72 72 72 72
64 63 62 63 66 68 68 69 69 68 69 70 69 70 69 69 69 69 69 68 68 73 75 76 77 78 79 79 78 77 75 74 74 73 73 72 72 72 72 72 71 71 71
65 67 67 67 67 67 67 66 67 68 68 66 66 67 67 68 68 68 68 68 67 68 70 75 75 76 77 78 79 78 76 74 73 72 72 72 72 71 71 71 71 71 71
62 60 61 61 63 64 63 64 64 64 65 64 65 66 66 66 67 71 69 68 67 68 66 70 74 74 75 76 77 78 77 75 74 74 72 72 72 71 71 70 70 70 70
59 56 56 56 57 59 59 60 60 63 63 62 65 65 63 64 65 65 66 67 66 65 63 62 62 66 71 72 73 74 74 75 75 74 73 72 71 71 71 70 70 70 70
57 55 54 54 56 56 56 58 59 59 61 61 62 62 61 63 62 62 62 61 62 62 61 60 60 59 61 67 69 70 71 72 72 72 70 70 70 70 71 70 70 70 70
55 55 51 51 51 52 51 53 54 54 56 60 58 57 56 60 61 61 60 60 57 59 60 59 59 59 59 59 63 66 67 68 69 69 68 69 69 69 69 70 70 70 70
54 52 51 50 49 48 47 47 49 50 50 55 57 56 55 54 55 59 57 56 56 55 56 58 59 59 59 58 61 62 67 68 70 71 72 70 69 70 68 68 69 69 69
51 52 51 49 47 45 45 46 51 47 47 48 52 58 56 57 53 52 56 56 55 55 54 55 56 57 57 56 60 63 64 66 67 68 69 69 69 68 68 68 68 68 68
49 51 50 48 47 46 46 46 47 46 46 47 47 49 50 51 53 53 51 52 54 54 55 55 53 53 54 54 54 57 63 64 64 65 63 64 65 65 66 66 67 67 67
46 48 49 47 47 46 46 47 47 47 47 46 47 47 48 48 47 48 48 50 51 50 51 52 52 54 53 52 57 62 62 62 62 61 61 62 63 64 64 65 66 66 66
44 46 46 46 47 47 48 48 47 48 48 46 46 46 48 49 50 50 49 48 48 48 48 47 48 49 51 48 51 60 61 60 60 59 59 60 61 61 61 62 63 63 63
44 46 47 47 48 49 51 54 54 54 54 53 53 51 49 52 54 52 50 48 46 46 47 46 47 48 47 47 53 59 50 57 59 59 59 59 59 59 59 59 59 59 58
48 48 48 47 48 49 49 50 52 52 53 52 51 51 52 52 52 52 52 51 48 45 47 49 49 51 46 45 49 50 48 56 59 59 59 59 58 58 58 58 58 58 57
46 46 46 46 47 48 47 46 47 48 47 47 47 47 48 48 47 47 47 48 47 46 43 46 45 44 45 47 50 52 52 57 57 57 59 59 58 57 57 58 57 57 57
48 51 48 47 47 47 46 46 47 47 46 45 45 44 44 43 42 42 42 42 41 41 38 40 41 45 43 43 45 45 47 46 46 54 57 58 57 57 56 57 57 57 57
51 52 48 47 47 47 46 46 46 46 45 44 44 44 44 47 42 41 40 40 40 41 41 38 39 41 42 43 43 43 46 49 45 53 57 57 57 56 55 55 56 56 55
46 47 47 46 46 46 45 46 46 45 45 44 44 43 44 43 41 40 40 40 40 42 39 39 38 39 41 41 41 42 42 42 47 55 55 56 55 56 55 56 56 55 54
45 45 45 45 45 45 45 45 46 45 44 44 43 44 44 44 42 41 41 39 40 39 39 38 42 42 39 40 39 38 40 40 42 47 51 53 54 55 55 55 55 55 53
45 45 44 44 43 45 47 44 46 46 44 43 43 44 44 51 54 51 44 42 40 38 39 39 38 41 38 38 37 38 36 38 39 40 42 48 48 45 47 49 51 53 52
45 44 43 42 41 45 47 49 48 45 44 42 41 42 42 48 47 51 52 52 48 41 40 37 37 37 38 38 37 36 36 39 39 41 40 41 47 45 44 44 50 50 49
43 43 42 41 40 40 46 47 49 43 43 41 41 41 43 46 45 43 47 49 48 50 49 41 38 38 38 39 38 36 37 37 40 40 39 42 47 44 44 45 48 49 48
43 42 41 40 39 42 46 45 47 41 40 41 42 42 41 41 42 44 41 42 42 41 42 43 40 40 40 41 38 41 40 42 40 41 43 40 43 40 40 40 48 48 47
41 42 41 40 38 39 45 44 43 40 41 41 42 42 42 41 44 44 41 40 40 40 47 50 47 45 44 44 45 39 38 39 40 37 41 42 41 38 36 40 46 48 47
42 43 42 39 44 39 43 44 43 40 39 40 41 43 47 44 43 43 39 38 39 39 39 40 39 41 42 41 46 38 42 38 40 38 43 38 38 39 38 44 45 45 44
MSLP
1015.21 1015.02 1014.47 1014.24 1013.77 1013.45 1013.81 1014.33 1014.14 1013.54 1013.21 1013.16 1013.11 1013.16 1013.05 1012.72 1012.46 1012.28 1012.23 1011.66 1011.85 1011.98 1012.14 1012.07 1012.21 1012.28 1012.16 1012.13 1012.20 1012.53 1012.58 1012.61 1012.84 1013.15 1013.29 1013.15 1013.37 1013.52 1013.43 1013.52 1013.78 1013.86 1013.76
1015.57 1015.32 1015.09 1015.13 1014.86 1014.33 1014.48 1014.29 1013.96 1013.97 1013.84 1013.77 1013.37 1012.79 1012.53 1012.56 1012.43 1012.10 1012.24 1012.21 1011.81 1011.66 1011.75 1011.79 1011.93 1012.05 1012.03 1012.06 1012.29 1012.35 1012.22 1012.29 1012.30 1012.70 1012.85 1013.12 1013.54 1013.67 1013.63 1013.57 1013.73 1013.89 1013.91
1015.77 1015.36 1015.27 1015.41 1014.76 1014.34 1013.92 1013.63 1013.16 1013.16 1013.33 1013.10 1013.13 1012.67 1012.53 1012.37 1011.98 1011.82 1011.76 1011.90 1011.85 1011.55 1011.39 1011.56 1011.59 1011.70 1011.70 1011.80 1011.94 1011.98 1011.99 1011.91 1011.88 1012.03 1012.46 1013.00 1013.21 1013.55 1013.92 1013.91 1013.84 1013.79 1013.81
1015.95 1015.39 1015.40 1015.47 1015.17 1014.78 1014.19 1013.96 1013.67 1013.28 1013.20 1013.19 1012.98 1012.53 1012.34 1012.29 1011.82 1011.41 1011.31 1011.38 1011.55 1011.42 1011.20 1011.18 1011.27 1011.34 1011.38 1011.56 1011.77 1011.89 1012.01 1012.14 1012.22 1012.50 1012.77 1013.09 1013.26 1013.39 1013.55 1013.66 1013.78 1013.84 1013.84
1017.05 1016.74 1016.40 1016.26 1015.66 1015.14 1014.96 1014.69 1014.27 1013.86 1013.46 1013.32 1013.07 1012.86 1012.36 1012.19 1011.84 1011.05 1011.34 1011.21 1011.42 1011.40 1011.16 1011.07 1011.12 1011.08 1010.94 1011.02 1011.25 1011.50 1011.49 1011.66 1011.83 1012.10 1012.55 1012.79 1013.00 1013.00 1013.17 1013.26 1013.65 1013.81 1013.80
1017.81 1017.62 1017.28 1016.81 1016.38 1015.76 1015.48 1015.22 1014.89 1014.22 1013.95 1013.65 1013.14 1012.80 1012.36 1011.96 1011.72 1011.39 1011.36 1011.27 1011.50 1011.24 1011.26 1010.99 1010.93 1011.23 1011.11 1011.10 1011.15 1011.26 1011.25 1011.30 1011.37 1011.64 1012.02 1012.42 1012.73 1012.86 1012.79 1012.78 1012.67 1012.98 1013.17
1018.54 1018.29 1018.04 1017.72 1017.21 1016.85 1016.60 1016.13 1015.49 1014.77 1014.15 1014.06 1013.47 1012.78 1012.11 1011.66 1011.61 1011.49 1011.41 1011.77 1011.95 1011.76 1011.66 1011.26 1011.60 1011.36 1011.51 1011.38 1011.29 1011.31 1011.41 1011.16 1011.15 1011.27 1011.51 1011.77 1012.01 1012.59 1012.52 1012.53 1012.36 1012.45 1012.56
1019.07 1018.83 1018.65 1018.21 1017.81 1017.46 1017.10 1016.84 1016.57 1016.04 1015.26 1014.86 1014.57 1013.97 1012.85 1012.07 1011.82 1011.81 1011.83 1012.03 1012.20 1012.16 1012.20 1012.02 1011.51 1011.48 1011.75 1011.78 1011.52 1011.33 1011.45 1011.37 1011.42 1011.42 1010.85 1010.84 1011.42 1011.99 1011.83 1011.54 1012.07 1011.92 1012.28
1019.53 1019.25 1018.96 1018.69 1018.24 1017.75 1017.38 1017.00 1016.71 1016.50 1016.06 1015.16 1014.92 1014.71 1013.60 1013.12 1012.73 1011.99 1012.33 1012.44 1012.30 1012.19 1012.25 1012.05 1011.88 1011.51 1011.51 1011.76 1011.61 1011.61 1011.30 1011.28 1010.88 1010.57 1010.07 1010.45 1011.15 1011.16 1011.56 1011.46 1011.49 1011.54 1011.95
1019.86 1019.44 1019.09 1018.76 1018.45 1018.21 1017.80 1017.47 1017.05 1016.85 1016.58 1016.03 1015.25 1014.34 1014.34 1014.18 1013.43 1012.81 1012.60 1012.55 1012.75 1012.53 1012.45 1012.36 1012.40 1012.12 1012.10 1011.92 1011.85 1011.78 1011.46 1011.30 1010.63 1010.69 1010.11 1009.93 1009.99 1010.53 1011.07 1011.32 1011.14 1010.79 1011.24
1019.99 1019.46 1019.09 1018.71 1018.46 1018.27 1017.91 1017.59 1017.13 1016.84 1016.59 1016.29 1015.88 1015.22 1014.85 1014.22 1013.84 1013.59 1013.06 1012.96 1012.80 1012.68 1012.78 1012.70 1012.68 1012.49 1012.60 1012.28 1012.09 1011.95 1011.23 1010.90 1010.55 1010.53 1010.83 1010.82 1010.62 1010.72 1010.61 1010.92 1011.02 1010.53 1010.79
1020.31 1019.70 1019.22 1018.89 1018.57 1018.27 1017.94 1017.55 1017.17 1016.84 1016.49 1016.21 1015.92 1015.77 1015.48 1014.82 1014.05 1013.90 1013.43 1013.19 1012.97 1013.12 1013.07 1013.16 1013.17 1012.55 1012.45 1012.43 1012.21 1011.92 1011.31 1010.95 1010.77 1010.82 1010.81 1010.96 1010.96 1010.82 1010.97 1010.59 1010.55 1010.31 1010.48
1020.55 1020.01 1019.57 1019.17 1018.80 1018.19 1017.70 1017.29 1016.87 1016.41 1016.04 1015.85 1015.56 1015.20 1014.72 1014.31 1014.06 1013.90 1013.72 1013.62 1013.68 1013.57 1013.57 1013.32 1013.03 1012.74 1012.54 1012.54 1012.39 1011.84 1011.38 1011.22 1010.90 1010.84 1010.81 1010.91 1010.96 1010.96 1010.54 1010.59 1010.57 1010.68 1010.63
1020.84 1020.17 1019.64 1019.22 1018.76 1018.22 1017.62 1016.99 1016.80 1016.43 1016.09 1015.72 1015.26 1014.92 1014.72 1014.35 1013.98 1013.93 1013.85 1013.88 1014.08 1014.05 1013.70 1013.48 1012.99 1012.89 1012.71 1012.73 1012.41 1011.81 1011.79 1011.45 1011.10 1010.90 1010.74 1010.76 1010.70 1010.66 1010.63 1010.65 1010.82 1010.84 1010.90
1020.68 1020.21 1019.86 1019.51 1019.00 1018.57 1018.12 1017.71 1017.42 1017.10 1016.75 1016.45 1016.11 1015.70 1015.32 1015.10 1014.71 1014.41 1014.08 1014.16 1014.31 1014.43 1014.01 1013.80 1013.54 1013.10 1012.93 1012.84 1012.43 1012.00 1011.93 1011.51 1010.95 1010.67 1010.49 1010.27 1010.19 1010.29 1010.38 1010.51 1010.65 1010.71 1010.70
1020.93 1020.53 1020.17 1019.86 1019.47 1019.01 1018.66 1018.34 1017.98 1017.69 1017.34 1017.10 1016.83 1016.45 1016.20 1015.93 1015.63 1015.32 1015.13 1014.93 1014.89 1014.94 1014.82 1014.22 1013.95 1013.61 1013.31 1013.06 1012.69 1012.37 1012.03 1011.52 1011.14 1010.67 1010.27 1009.91 1009.75 1009.80 1010.01 1010.08 1010.22 1010.29 1010.35
1021.07 1020.66 1020.46 1020.16 1019.83 1019.47 1019.13 1018.73 1018.33 1018.05 1017.79 1017.60 1017.32 1017.09 1016.94 1016.62 1016.37 1016.08 1015.79 1015.64 1015.59 1015.51 1015.52 1014.90 1014.63 1014.08 1013.85 1013.53 1013.06 1012.66 1012.17 1011.76 1011.22 1010.57 1010.05 1009.64 1009.40 1009.30 1009.36 1009.59 1009.67 1009.72 1009.80
1021.14 1020.90 1020.70 1020.37 1019.98 1019.62 1019.25 1018.96 1018.75 1018.48 1018.34 1018.18 1017.95 1017.64 1017.47 1017.12 1016.90 1016.63 1016.42 1016.35 1016.13 1015.77 1015.69 1015.53 1015.02 1014.58 1014.14 1013.50 1013.18 1012.70 1012.18 1011.53 1011.09 1010.17 1009.48 1009.10 1008.78 1008.93 1009.05 1009.04 1009.02 1009.16 1009.20
1021.63 1021.21 1020.87 1020.58 1020.30 1020.01 1019.69 1019.38 1019.10 1018.84 1018.71 1018.51 1018.21 1017.98 1017.73 1017.35 1017.16 1016.90 1016.66 1016.50 1016.16 1015.78 1015.64 1015.59 1015.29 1014.69 1014.16 1013.54 1013.15 1012.53 1012.07 1011.41 1010.50 1009.74 1009.24 1008.91 1008.72 1008.51 1008.61 1008.65 1008.65 1008.54 1008.46
1022.08 1021.80 1021.48 1021.14 1020.76 1020.40 1020.06 1019.75 1019.43 1019.16 1018.97 1018.70 1018.36 1018.05 1017.75 1017.45 1017.19 1016.86 1016.56 1016.36 1016.04 1015.82 1015.52 1015.41 1014.99 1014.59 1014.19 1013.54 1013.28 1012.85 1012.09 1011.31 1010.76 1009.83 1009.34 1008.92 1008.72 1008.62 1008.52 1008.58 1008.47 1008.18 1007.79
1022.57 1022.27 1022.00 1021.67 1021.21 1020.66 1020.36 1019.91 1019.56 1019.26 1019.12 1018.96 1018.62 1018.23 1017.81 1017.35 1016.97 1016.59 1016.28 1016.01 1015.90 1015.62 1015.34 1015.18 1015.00 1014.63 1014.20 1013.77 1013.32 1012.83 1012.52 1011.75 1010.93 1010.44 1009.96 1009.25 1008.93 1008.90 1008.74 1008.58 1008.41 1008.19 1007.88
1022.65 1022.51 1022.40 1022.18 1021.74 1021.17 1020.57 1019.91 1019.62 1019.47 1019.29 1019.13 1018.91 1018.31 1017.87 1017.44 1017.01 1016.54 1016.06 1015.75 1015.53 1015.38 1015.24 1015.28 1015.00 1014.72 1014.11 1013.64 1013.22 1012.91 1012.63 1012.22 1011.49 1010.73 1010.55 1009.67 1009.17 1009.12 1009.01 1008.83 1008.58 1008.38 1008.27
1022.75 1022.77 1022.66 1022.45 1022.08 1021.46 1020.78 1020.14 1019.87 1019.70 1019.48 1019.18 1018.80 1018.33 1017.71 1017.37 1016.94 1016.52 1016.01 1015.65 1015.28 1015.01 1014.91 1014.84 1014.88 1014.59 1014.17 1013.55 1013.32 1012.80 1012.49 1012.33 1011.79 1010.90 1010.83 1009.92 1009.32 1009.21 1009.02 1008.77 1008.49 1008.24 1008.27
1022.83 1022.89 1022.86 1022.62 1022.30 1021.80 1021.18 1020.62 1020.24 1019.94 1019.57 1019.07 1018.68 1018.27 1017.85 1017.31 1016.79 1016.42 1015.97 1015.58 1015.34 1014.89 1014.52 1014.40 1014.38 1014.13 1013.88 1013.39 1013.11 1012.68 1012.27 1011.83 1011.26 1010.65 1010.42 1010.15 1009.58 1009.50 1009.06 1008.76 1008.28 1008.12 1008.12
1022.98 1022.98 1022.99 1022.85 1022.61 1022.01 1021.42 1020.91 1020.39 1019.93 1019.51 1019.01 1018.54 1018.10 1017.76 1017.25 1016.58 1016.09 1015.89 1015.62 1015.25 1014.74 1014.22 1013.99 1013.88 1013.66 1013.37 1012.96 1012.63 1012.39 1012.07 1011.83 1011.12 1010.78 1010.26 1010.13 1009.88 1009.64 1009.22 1008.77 1008.32 1008.15 1008.05
1023.33 1023.20 1023.10 1022.96 1022.63 1022.20 1021.54 1021.08 1020.65 1020.24 1019.97 1019.54 1018.68 1018.09 1017.47 1017.29 1016.65 1016.09 1015.80 1015.64 1015.38 1014.97 1014.66 1014.17 1013.97 1013.73 1013.53 1013.12 1012.53 1012.46 1012.12 1011.62 1011.05 1010.57 1010.04 1010.04 1009.78 1009.74 1009.33 1008.58 1008.45 1008.19 1008.11
Wind_Speed
2 4 4 4 5 7 7 6 7 7 6 5 6 5 7 6 5 3 3 7 8 8 9 9 10 11 10 10 9 10 9 9 7 6 5 5 5 4 5 6 5 5 7
4 4 4 5 3 1 4 6 4 6 5 6 8 7 5 5 5 5 3 5 10 9 10 12 13 12 12 11 11 11 10 11 10 9 9 7 6 5 5 6 5 3 3
4 4 4 5 5 6 6 7 6 4 4 6 9 5 4 6 5 6 5 4 5 10 10 12 13 14 15 16 15 14 13 13 13 12 10 9 8 7 5 4 3 3 1
13 9 6 6 6 4 6 5 4 5 7 4 4 5 4 5 6 5 4 4 4 4 7 12 13 16 16 16 15 12 10 9 10 9 7 8 9 8 7 5 2 3 3
13 10 8 8 9 7 7 7 5 4 4 3 4 5 4 5 6 5 6 6 5 5 3 7 10 10 12 11 12 11 8 9 10 7 8 9 11 10 8 6 4 5 6
11 9 8 9 9 7 8 8 8 6 3 4 5 5 4 5 5 4 5 4 4 3 3 4 4 5 8 7 4 2 2 2 3 4 6 9 12 11 11 11 9 8 9
10 9 6 7 8 7 8 9 6 6 3 8 4 4 4 6 4 4 3 4 5 5 5 5 3 3 3 8 8 7 6 6 4 2 3 6 10 15 13 12 11 11 12
9 9 7 7 6 5 5 6 5 4 3 5 3 4 4 4 3 4 3 3 4 3 3 3 4 4 3 3 3 4 6 7 7 6 6 10 13 17 18 14 14 13 13
8 6 6 6 7 6 5 5 4 5 3 3 5 3 3 2 3 0 3 2 2 2 2 2 2 2 2 2 3 5 5 9 9 11 9 11 19 19 18 16 15 12 14
7 7 7 5 5 4 6 5 5 4 3 4 4 2 3 4 3 3 1 2 1 2 1 2 2 4 4 4 8 11 13 16 14 15 12 10 13 14 17 16 13 12 15
7 8 7 7 6 4 5 5 6 5 3 3 2 4 3 2 4 5 5 3 2 3 3 2 2 2 5 5 4 7 14 15 13 6 2 3 5 8 9 12 14 13 16
5 6 8 6 6 6 6 6 6 5 5 4 3 4 4 3 3 3 3 4 1 2 2 3 3 3 3 4 8 14 16 15 10 2 1 8 11 10 13 13 16 16 16
4 7 6 7 5 6 6 6 5 5 4 4 4 4 3 3 3 3 2 1 2 2 2 2 2 3 3 4 6 14 14 15 13 8 9 10 9 12 11 11 11 12 12
4 5 6 6 7 7 7 8 6 7 8 7 8 5 2 2 2 3 2 1 1 2 2 3 2 3 5 5 10 16 7 14 13 12 12 11 10 11 10 9 9 8 7
5 6 6 6 7 7 8 8 6 7 7 7 8 9 7 7 7 6 3 3 1 2 2 2 3 4 4 4 8 5 6 12 14 13 12 12 13 12 11 10 9 8 8
6 6 6 6 6 6 6 6 5 5 6 5 4 7 7 5 5 5 4 3 3 2 3 2 2 3 5 4 7 6 6 12 14 14 14 12 11 10 11 11 9 10 11
6 5 5 6 5 5 6 5 5 6 7 6 6 6 7 6 5 5 4 4 4 3 2 4 2 3 3 5 6 5 5 5 5 14 14 13 10 10 11 11 13 14 14
7 6 5 5 6 6 6 6 6 6 6 7 6 7 6 5 6 5 3 4 3 2 1 3 2 3 3 3 4 4 4 5 5 12 14 13 8 7 7 10 11 13 13
7 8 8 8 7 6 6 6 6 6 6 6 6 5 6 6 6 4 3 4 3 3 1 1 3 2 3 2 4 4 4 5 6 14 10 12 11 7 8 10 13 13 14
7 7 7 7 7 6 6 6 5 6 6 6 5 5 5 5 5 5 4 4 4 4 2 2 3 3 3 4 3 3 6 3 6 6 8 11 8 8 5 5 8 12 9
5 6 6 7 7 6 5 5 4 5 6 7 7 6 6 8 11 8 3 5 4 3 3 3 3 3 3 3 3 3 3 4 5 2 4 4 3 3 4 6 8 10 5
6 6 6 7 8 6 15 9 1 5 6 6 6 7 6 8 9 12 10 8 4 3 4 2 2 3 5 3 3 2 2 3 4 2 4 5 1 3 3 3 7 3 1
3 4 5 6 7 7 16 12 10 5 5 6 6 6 7 4 9 6 9 9 7 6 2 2 3 3 4 3 3 4 3 3 3 4 1 4 2 3 2 4 10 6 4
2 1 4 6 6 6 13 12 10 5 5 6 6 7 6 7 7 8 7 7 5 6 5 3 4 5 5 6 4 4 4 5 4 4 3 3 3 3 4 4 8 2 4
1 2 2 5 6 6 11 10 7 6 6 7 6 6 6 7 12 12 5 5 6 6 5 4 5 5 9 10 8 4 4 4 3 4 1 1 2 3 3 3 2 8 5
3 2 3 4 6 6 10 12 9 4 6 6 8 7 12 11 14 12 4 3 4 4 5 6 6 7 7 8 11 2 4 5 4 3 1 1 2 2 4 1 4 2 2
Wind_Direction
324 322 356 352 40 49 37 320 301 299 289 275 247 259 277 265 250 248 270 253 264 263 267 256 246 241 234 227 218 217 209 193 185 185 177 144 140 122 100 89 64 33 26
4 358 358 347 357 303 176 227 253 267 305 302 298 265 256 276 264 245 242 259 271 273 258 259 258 252 250 246 235 227 211 197 189 181 170 169 168 155 146 132 123 105 82
324 340 338 323 311 303 270 222 241 277 265 224 249 249 243 247 247 260 255 253 265 272 273 255 257 259 252 243 235 231 217 203 198 188 184 179 174 173 172 152 147 154 183
5 354 353 1 349 317 347 347 313 258 250 255 273 269 286 289 285 276 270 262 257 258 258 262 262 262 256 251 249 250 250 241 222 203 192 196 194 186 182 183 208 244 257
16 14 15 4 353 14 15 358 335 345 326 332 294 275 276 276 275 276 273 267 268 267 255 257 264 259 249 253 257 265 274 220 223 212 211 209 208 200 197 203 231 262 277
16 13 6 4 358 13 10 4 351 353 334 343 310 301 297 293 285 275 289 320 314 7 27 63 60 62 84 90 88 46 360 264 185 207 211 226 241 225 217 214 210 231 253
13 14 6 0 2 8 360 359 336 351 331 357 312 319 276 252 286 337 7 57 27 40 47 67 66 86 56 65 58 43 30 30 25 298 277 263 256 249 232 226 236 240 252
7 8 353 353 354 350 355 357 357 326 310 359 352 275 299 328 21 80 81 90 60 34 45 59 83 74 32 351 7 18 354 345 321 305 301 278 257 240 232 231 245 252 260
358 353 352 346 345 351 346 336 333 347 318 310 341 268 321 304 332 324 53 73 105 98 81 53 28 55 74 350 348 322 293 256 261 283 285 255 239 241 242 249 257 263 270
337 338 342 339 339 336 335 325 331 313 318 300 308 310 310 297 277 295 38 50 31 49 37 333 345 357 360 354 334 322 318 308 301 297 283 268 228 231 248 259 267 269 274
332 334 336 335 337 331 313 304 313 316 307 298 306 330 307 290 274 264 279 278 331 258 284 273 318 24 353 342 322 313 330 326 307 301 351 344 327 299 285 284 282 281 279
314 329 334 329 326 321 320 316 307 299 289 263 260 254 251 252 264 268 290 277 255 321 313 342 360 33 17 357 347 340 338 341 327 257 243 329 308 298 294 290 286 283 285
328 330 331 329 326 317 317 320 316 311 317 310 295 281 281 295 298 274 259 349 11 335 327 13 45 36 4 343 331 330 340 333 340 308 288 286 283 292 301 299 303 306 311
305 307 329 333 331 334 337 344 344 349 349 347 352 357 309 313 357 355 24 119 32 303 282 297 302 14 5 341 332 337 328 324 316 310 307 287 272 278 279 276 275 283 297
334 341 339 345 350 351 347 347 355 2 9 11 13 18 17 17 21 14 25 23 20 304 295 7 334 355 344 335 326 334 316 315 317 310 300 295 259 260 258 258 264 271 272
346 349 350 352 350 345 348 356 2 1 20 7 6 18 17 5 13 19 18 24 21 17 319 360 326 314 328 330 321 342 319 342 331 322 309 294 282 249 249 252 257 267 270
341 353 358 354 359 359 359 8 10 13 25 20 15 26 20 14 15 14 16 18 15 17 346 312 316 306 302 319 318 321 330 315 308 319 314 305 277 237 243 260 256 254 255
2 12 7 2 6 8 6 18 18 14 21 14 5 14 12 5 11 6 14 11 360 339 20 285 288 298 274 288 281 304 312 314 298 314 320 310 276 246 253 268 253 249 245
358 2 8 8 4 3 7 11 17 8 10 2 356 1 353 358 352 341 332 338 328 318 298 239 276 275 272 293 310 295 298 303 319 336 344 357 336 268 254 266 281 280 243
3 358 359 357 357 354 360 351 350 354 7 6 7 11 354 354 353 339 332 317 307 314 298 290 275 268 254 283 263 289 333 326 324 329 343 341 332 351 358 334 331 325 275
350 359 4 357 352 356 354 321 327 344 4 360 357 354 340 356 7 14 355 324 334 324 307 321 294 286 291 317 324 308 291 305 305 300 326 316 325 328 322 343 341 344 4
5 18 13 2 356 347 348 360 313 344 356 1 338 327 328 337 335 340 357 1 12 341 338 325 302 294 285 266 283 285 292 322 324 311 343 300 320 294 300 309 307 295 273
353 358 358 5 356 344 356 13 38 10 351 326 314 312 316 317 323 309 317 329 336 335 324 213 275 265 291 280 298 295 272 250 264 277 319 282 339 309 318 310 310 264 239
341 37 11 8 4 340 354 360 6 355 335 324 320 318 313 315 307 318 305 303 307 308 295 290 236 268 272 289 243 261 269 282 271 277 206 271 359 297 312 312 315 308 266
27 77 40 15 1 340 344 354 356 352 345 334 327 319 323 322 324 335 308 306 312 304 303 323 4 336 332 327 345 332 316 309 288 282 268 233 284 286 292 296 359 354 8
56 54 7 1 338 340 338 352 358 344 357 340 332 338 343 353 341 345 336 315 315 304 331 336 342 345 339 323 332 329 302 287 274 286 270 347 287 7 316 300 333 319 347